Tracking 28790 objects as of 19-Apr-2024
HD Live streaming from Space Station
objects crossing your sky now

SL-14 R/B

Track SL-14 R/B now!
10-day predictions


NORAD ID: 22784
Int'l Code: 1993-055C
Perigee: 943.5 km
Apogee: 973.8 km
Inclination: 82.6 °
Period: 104.1 minutes
Semi major axis: 7329 km
RCS: 5.0165 m2 (large)
Launch date: August 31, 1993
Source: Commonwealth of Independent States (former USSR) (CIS)
Launch site: PLESETSK MISSILE AND SPACE COMPLEX (PKMTR)

Note: This is a ROCKET BODY
Your satellite tracking list
Your tracking list is empty




NASA's NSSDC Master Catalog

Two Line Element Set (TLE):
1 22784U 93055C   24109.82758797  .00000048  00000-0  30268-4 0  9999
2 22784  82.5534 205.9097 0020688 276.3952 205.4286 13.83490248546578
Source of the keplerian elements: AFSPC